Regional Weather Roundup
Issued by NWS

Home | Current Version | Previous Version | Graphics & Text | Print | Product List | Glossary On
Versions: 1 2 3 4 5 6 7 8 9 10 11 12 13 14 15 16 17 18 19 20 21 22 23 24 25 26 27 28 29 30 31 32 33 34 35 36 37 38 39 40 41 42 43 44 45 46 47 48 49 50
000
ASUS43 KBIS 110402
RWRND

NORTH DAKOTA REGIONAL WEATHER ROUNDUP
NATIONAL WEATHER SERVICE BISMARCK ND
1000 PM CST SUN DEC 10 2017

NOTE: "FAIR" INDICATES FEW OR NO CLOUDS BELOW 12,000 FEET WITH NO
SIGNIFICANT WEATHER AND/OR OBSTRUCTIONS TO VISIBILITY.


NDZ001>003-009>011-017-110500-
NORTHWEST NORTH DAKOTA

CITY           SKY/WX    TMP DP  RH WIND       PRES   REMARKS
WILLISTON      CLOUDY    40  21  46 W18G26    29.97F
MINOT          CLOUDY    44  24  45 W22G29    29.82F
MINOT AFB      CLOUDY    43  25  49 W23G31    29.80F
$$

NDZ018>021-031>035-040>046-110500-
SOUTHWEST NORTH DAKOTA

CITY           SKY/WX    TMP DP  RH WIND       PRES   REMARKS
BISMARCK       CLOUDY    44  26  49 W14       29.93S
DICKINSON      CLOUDY    35  18  49 W13       29.96F
GARRISON         N/A     41  21  44 W23       29.88F
HETTINGER ARPT CLEAR     36  16  44 W15       30.02F
$$

NDZ004>008-012>016-024-026-027-054-110500-
NORTHEAST NORTH DAKOTA

CITY           SKY/WX    TMP DP  RH WIND       PRES   REMARKS
GRAND FORKS    CLOUDY    27  26  96 S13       29.82F WCI  16
GRND FRKS AFB  CLOUDY    29  27  95 SW9       29.80S WCI  20
DEVILS LAKE    CLOUDY    36  30  79 W16G25    29.77F
$$

NDZ022-023-025-028>030-036>039-047>053-110500-
SOUTHEAST NORTH DAKOTA

CITY           SKY/WX    TMP DP  RH WIND       PRES   REMARKS
FARGO          LGT SNOW  29  27  92 S13       29.88R FOG     WCI  19
JAMESTOWN      CLOUDY    38  30  73 W12       29.83F
$$





USA.gov is the U.S. government's official web portal to all federal, state and local government web resources and services.